Doha, Qatar

2:06 AM +03 on July 27, 2017 (GMT +0300)
Doha International

Weather History for OTBD - September, 2011

Change the Weather History Date:

Wednesday, September 7, 2011

  Actual Average Record
Temperature  
Mean Temperature 100 °F -  
Max Temperature 110 °F 100 °F 109 °F (2001)
Min Temperature 89 °F 79 °F 84 °F (1996)
Cooling Degree Days 34    
Growing Degree Days 50 (Base 50)    
Moisture  
Dew Point 60 °F    
Average Humidity 28    
Maximum Humidity 62    
Minimum Humidity 11    
Precipitation  
Precipitation 0.00 in 0.00 in - ()
Sea Level Pressure  
Sea Level Pressure 29.50 in    
Wind  
Wind Speed 9 mph ()    
Max Wind Speed 21 mph    
Max Gust Speed 23 mph    
Visibility 6.4 miles    
Events      
Averages and records for this station are not official NWS values.
T = Trace of Precipitation, MM = Missing Value Source: Averaged Metar Reports

Daily Weather History Graph

Daily Weather History Graph

Search for Another Location

Airport or City:

Trip Planner

Search our weather history database for the weather conditions in past years. The results will help you decide how hot, cold, wet, or windy it might be!

Date:

Astronomy

Sep. 07, 2011 Rise Set
Actual Time 5:16 AM +03 5:46 PM +03
Civil Twilight 4:53 AM +03 6:10 PM +03
Nautical Twilight 4:26 AM +03 6:37 PM +03
Astronomical Twilight 3:58 AM +03 7:04 PM +03
Moon 2:26 PM +03 (9/7) 12:34 AM +03 (9/7)
Length of Visible Light 13h 16m
Length of Day
12h 30m
Waxing Gibbous, 77% of the Moon is Illuminated
Sep 7
Waxing Gibbous
Sep 12
Full
Sep 20
Last Quarter
Sep 27
New
Oct 4
First Quarter

Hourly Weather History & Observations

Time (+03) Temp. Heat Index Dew Point Humidity Pressure Visibility Wind Dir Wind Speed Gust Speed Precip Events Conditions
12:00 AM 98.6 °F 99.4 °F 60.8 °F 29% 29.50 in - NW 5.8 mph - N/A   Clear
12:30 AM 98.6 °F 99.4 °F 60.8 °F 29% 29.50 in - NW 5.8 mph - N/A   Clear
1:00 AM 96.8 °F 97.1 °F 60.8 °F 30% 29.47 in - WNW 5.8 mph - N/A   Clear
1:30 AM 95.0 °F 101.3 °F 69.8 °F 44% 29.47 in - WSW 4.6 mph - N/A   Clear
2:00 AM 91.4 °F 98.4 °F 71.6 °F 52% 29.47 in - SW 5.8 mph - N/A   Clear
2:30 AM 91.4 °F 100.1 °F 73.4 °F 55% 29.47 in - WSW 4.6 mph - N/A   Clear
3:00 AM 90 °F - 75 °F 53% 29.50 in 7 mi WSW 6.9 mph - -  
3:00 AM 89.6 °F 99.8 °F 75.2 °F 62% 29.47 in - WSW 6.9 mph - N/A   Clear
3:30 AM 91.4 °F 100.1 °F 73.4 °F 55% 29.47 in - WSW 4.6 mph - N/A   Clear
4:00 AM 91.4 °F 100.1 °F 73.4 °F 55% 29.47 in - WSW 8.1 mph - N/A   Clear
4:30 AM 91.4 °F 98.4 °F 71.6 °F 52% 29.50 in - West 5.8 mph - N/A   Clear
5:00 AM 91.4 °F 96.8 °F 69.8 °F 49% 29.50 in - West 8.1 mph - N/A   Clear
5:30 AM 91.4 °F 95.4 °F 68.0 °F 46% 29.50 in - West 4.6 mph - N/A   Clear
6:00 AM 91.4 °F 95.4 °F 68.0 °F 46% 29.50 in - West 4.6 mph - N/A   Clear
6:30 AM 93.2 °F 97.7 °F 68.0 °F 44% 29.53 in - WNW 4.6 mph - N/A   Clear
7:00 AM 95.0 °F 99.5 °F 68.0 °F 41% 29.53 in - WNW 5.8 mph - N/A   Clear
7:30 AM 98.6 °F 101.0 °F 64.4 °F 32% 29.53 in - NW 10.4 mph - N/A   Clear
8:00 AM 98.6 °F 100.0 °F 62.6 °F 30% 29.53 in - NW 10.4 mph 23.0 mph N/A   Clear
8:30 AM 100.4 °F 103.6 °F 64.4 °F 31% 29.53 in - NW 10.4 mph - N/A   Clear
9:00 AM 102 °F - 60 °F 16% 29.56 in 6 mi NW 11.5 mph - -   Scattered Clouds
9:00 AM 102.2 °F 102.4 °F 59.0 °F 24% 29.53 in - NW 11.5 mph - N/A   Clear
9:30 AM 104.0 °F 104.6 °F 59.0 °F 23% 29.53 in - WNW 10.4 mph - N/A   Clear
10:00 AM 107.6 °F 106.1 °F 53.6 °F 17% 29.53 in - NW 10.4 mph - N/A   Clear
10:30 AM 109.4 °F 107.9 °F 53.6 °F 16% 29.53 in - North 11.5 mph - N/A   Clear
11:00 AM 109.4 °F 107.9 °F 53.6 °F 16% 29.53 in - North 13.8 mph - N/A   Clear
11:30 AM 109.4 °F 109.4 °F 57.2 °F 18% 29.50 in 5.6 mi North 16.1 mph - N/A   Unknown
12:00 PM 107.6 °F 108.2 °F 59.0 °F 20% 29.50 in 5.6 mi North 13.8 mph - N/A   Unknown
12:30 PM 107.6 °F 108.2 °F 59.0 °F 20% 29.50 in 5.6 mi North 16.1 mph - N/A   Unknown
1:00 PM 107.6 °F 112.3 °F 64.4 °F 25% 29.50 in 5.6 mi North 16.1 mph - N/A   Unknown
1:30 PM 107.6 °F 110.6 °F 62.6 °F 23% 29.47 in 5.6 mi North 16.1 mph - N/A   Unknown
2:00 PM 109.4 °F 109.4 °F 57.2 °F 18% 29.47 in - North 20.7 mph - N/A   Clear
2:30 PM 107.6 °F 106.8 °F 55.4 °F 18% 29.47 in - North 19.6 mph - N/A   Clear
3:00 PM 107 °F - 58 °F 13% 29.49 in 7 mi North 20.7 mph - -  
3:00 PM 107.6 °F 108.2 °F 59.0 °F 20% 29.47 in - North 20.7 mph - N/A   Clear
3:30 PM 105.8 °F 104.9 °F 55.4 °F 19% 29.47 in - North 20.7 mph - N/A   Clear
4:00 PM 105.8 °F 106.8 °F 59.0 °F 22% 29.47 in - North 19.6 mph - N/A   Clear
4:30 PM 104.0 °F 106.6 °F 62.6 °F 26% 29.47 in - North 13.8 mph - N/A   Clear
5:00 PM 102.2 °F 104.2 °F 62.6 °F 27% 29.47 in - North 12.7 mph - N/A   Clear
5:30 PM 102.2 °F 103.6 °F 60.8 °F 26% 29.50 in - NNW 12.7 mph - N/A   Clear
6:00 PM 102.2 °F - 46.4 °F 15% 29.50 in - NNW 13.8 mph - N/A   Clear
6:30 PM 102.2 °F - 50.0 °F 17% 29.50 in - NW 9.2 mph - N/A   Clear
7:00 PM 102.2 °F - 50.0 °F 17% 29.50 in - NW 10.4 mph - N/A   Clear
7:30 PM 100.4 °F - 50.0 °F 18% 29.50 in - NW 9.2 mph - N/A   Clear
8:00 PM 100.4 °F - 50.0 °F 18% 29.53 in - NW 11.5 mph - N/A   Clear
8:30 PM 100.4 °F - 50.0 °F 18% 29.53 in - NW 11.5 mph - N/A   Clear
9:00 PM 100 °F - 50 °F 11% 29.54 in 10 mi WNW 10.4 mph - -  
9:00 PM 100.4 °F - 50.0 °F 18% 29.53 in - WNW 10.4 mph - N/A   Clear
9:30 PM 100.4 °F - 50.0 °F 18% 29.53 in - NW 10.4 mph - N/A   Clear
10:00 PM 100.4 °F - 48.2 °F 17% 29.50 in - WNW 9.2 mph - N/A   Clear
10:30 PM 100.4 °F - 44.6 °F 15% 29.50 in - NW 11.5 mph - N/A   Clear
11:00 PM 100.4 °F - 42.8 °F 14% 29.50 in - NW 11.5 mph - N/A   Clear
11:30 PM 100.4 °F - 42.8 °F 14% 29.50 in - NW 12.7 mph - N/A   Clear